NOAA 11 - Orbit

View from above orbital plane
View from above orbital plane
View from above satellite
View from above satellite

Ground track
Ground track

The orbit data is extracted from the following two-line orbital elements,

1 19531U 88089A   13170.50411084  .00000051  00000-0  48773-4 0  4025
2 19531 098.7112 253.4825 0010279 251.7622 180.1728 14.15018009276452
Epoch (UTC): 19 June 2013 12:05:55
Eccentricity: 0.0010279
inclination: 98.7112°
perigee height: 835 km
apogee height: 849 km
right ascension of ascending node: 253.4825°
argument of perigee: 251.7622°
revolutions per day: 14.15018009
mean anomaly at epoch: 180.1728°
orbit number at epoch: 27645

The dashed part of the orbit path shows where the satellite is in the earth's shadow,  

Developed and maintained by Chris Peat, Heavens-Above GmbH. Please read the updated FAQ before sending e-mail. Imprint. DLR